[[{"header":{"parameterUnit":"m.s-1","parameterCategory":1,"la1":30.2991,"la2":30.254,"lo1":-89.0895,"lo2":-89.0444,"dy":0.0017,"dx":0.0017,"nx":28,"ny":28,"refTime":"2024-06-08T09:00:00:Z","depth":0,"parameterNumber":2,"parameterNumberName":"U-component_of_WINDS"},"data":[0,0,0,0,0,0,0,0,0,0,0,0,0,0,0,0,0,0,0,0,0,0,0,0,0,0,0,0,0,0,0,0,0,0,0,0,0,0,0,0,0,0,0,0,0,0,0,0,0,0,0,0,0,0,0,0,0,0,-2.0121,-2.0121,0,-2.0141,-2.0141,-2.0141,-2.0052,-2.0049,-2.0047,-2.0044,-2.0067,-2.007,-2.0073,0,0,0,0,0,0,0,0,0,0,0,0,0,-2.0006,-2.0008,-2.0121,-2.0121,-2.0121,-2.0141,-2.0141,-2.0141,-2.0052,-2.0049,-2.0046,-2.0043,-2.0066,-2.0069,-2.0073,0,0,0,0,0,0,0,0,0,0,0,0,0,-2.0044,-2.0009,-2.0121,-2.0079,-2.0075,-2.0141,-2.0141,-2.0141,-2.0053,-2.0049,-2.0045,-2.0041,-2.0064,-2.0069,-2.0073,-2.018,0,0,-2.0087,-2.0089,0,0,0,0,0,0,0,0,-2.0042,-2.0048,-2.0085,-2.0082,-2.0078,-2.009,-2.0109,-2.0154,-2.0054,-2.0062,-2.0044,-2.004,-2.0078,-2.0081,-2.0093,-2.0181,-2.0182,-2.0088,-2.009,-2.0092,-2.0094,0,0,0,0,0,0,0,-2.0039,-2.0047,-2.0129,-2.0086,-2.0081,-2.006,-2.0061,-2.0117,-2.0092,-2.0061,-2.0054,-2.0058,-2.0075,-2.0089,-2.0093,-2.0182,-2.0088,-2.0092,-2.0094,-2.0096,-2.0358,-2.0362,0,0,0,0,0,0,-2.0042,-2.0045,-2.0128,-2.0129,-2.005,-2.0065,-2.0066,-2.009,-2.0091,-2.0087,-2.0061,-2.0053,-2.0083,-2.0088,-2.0094,-2.0219,-2.0092,-2.0097,-2.0099,-2.0354,-2.0359,-2.0364,0,0,0,0,0,0,-2.004,-2.005,-2.0127,-2.0085,-2.0093,-2.0071,-2.0099,-2.0093,-2.0107,-2.0091,-2.0086,-2.008,-2.008,-2.0087,-2.0159,-2.0218,-2.0099,-2.0103,-2.0349,-2.0356,-2.0361,-2.047,0,0,0,0,0,0,-2.0037,-2.005,-2.009,-2.0087,-2.0096,-2.0193,-2.0102,-2.0096,-2.0114,-2.0105,-2.0108,-2.0104,-2.0078,-2.0153,-2.0164,-2.0222,-2.0106,-2.0344,-2.0352,-2.0359,-2.0461,-2.0479,-2.0495,0,0,0,0,0,-2.0033,-2.0121,-2.0093,-2.0103,-2.0146,-2.0196,-2.0201,-2.0169,-2.012,-2.016,-2.015,-2.0104,-2.021,-2.0161,-2.0172,-2.0234,-2.034,-2.035,-2.0359,-2.0454,-2.0476,-2.0495,0,0,0,0,0,0,-2.0132,-2.0119,-2.0089,-2.0177,-2.0189,-2.0181,-2.0231,-2.0193,-2.0219,-2.0209,-2.0168,-2.0169,-2.0248,-2.0247,-2.0193,-2.0336,-2.0266,-2.0279,-2.0334,-2.0355,-2.0372,-2.0371,-2.011,0,0,0,0,0,-2.0164,-2.0206,-2.0192,-2.0272,-2.0279,-2.0254,-2.0275,-2.0249,-2.0259,-2.0263,-2.0258,-2.027,-2.0305,-2.033,-2.0362,-2.046,-2.0459,-2.0507,-2.0524,-2.0538,-2.055,-2.0602,-2.0623,-2.0395,-2.0395,-2.0395,0,0,-2.0232,-2.023,-2.0258,-2.0292,-2.0297,-2.0342,-2.0259,-2.0309,-2.0342,-2.0271,-2.0338,-2.0335,-2.0345,-2.0431,-2.0468,-2.0433,-2.0612,-2.055,-2.0562,-2.0566,-2.0614,-2.0635,-2.0655,-2.0401,-2.04,-2.0399,0,0,-2.0377,-2.0379,-2.0446,-2.0453,-2.0461,-2.0444,-2.046,-2.0458,-2.0453,-2.052,-2.0467,-2.0505,-2.0567,-2.0577,-2.059,-2.0737,-2.0696,-2.0749,-2.0838,-2.0889,-2.0907,-2.0922,-2.0976,-2.0995,-2.076,-2.076,-2.076,0,-2.046,-2.0524,-2.0485,-2.0539,-2.0555,-2.0492,-2.0559,-2.0568,-2.0587,-2.06,-2.0559,-2.0636,-2.0638,-2.0725,-2.0761,-2.0773,-2.0791,-2.0749,-2.0907,-2.0922,-2.0937,-2.0987,-2.1007,-2.0766,-2.0766,-2.0765,-2.0764,0,-2.0625,-2.067,-2.0723,-2.0743,-2.0765,-2.0825,-2.0796,-2.0823,-2.0794,-2.0781,-2.085,-2.085,-2.0881,-2.0899,-2.0872,-2.0982,-2.096,-2.0914,-2.0843,-2.0965,-2.1012,-2.1031,-2.0776,-2.0773,-2.0771,-2.077,0,0,-2.0836,-2.0832,-2.0852,-2.086,-2.0864,-2.0899,-2.0956,-2.0985,-2.1009,-2.1024,-2.1071,-2.1125,-2.1082,-2.1097,-2.107,-2.1114,-2.1231,-2.1062,-2.1062,-2.1095,-2.1353,-2.1389,-2.1412,-2.1203,-2.1207,-2.121,-2.1353,0,-2.0979,-2.1077,-2.1043,-2.1142,-2.1184,-2.1123,-2.1173,-2.1181,-2.117,-2.1203,-2.119,-2.123,-2.117,-2.1178,-2.1219,-2.1209,-2.1283,-2.1197,-2.1248,-2.125,-2.1249,-2.1436,-2.1474,-2.161,-2.1371,-2.1374,-2.1376,0,-2.116,-2.1181,-2.1285,-2.1281,-2.1297,-2.1343,-2.1366,-2.1399,-2.1407,-2.1395,-2.1411,-2.1374,-2.143,-2.1357,-2.1434,-2.1377,-2.1395,-2.1392,-2.1397,-2.1402,-2.1322,-2.1448,-2.1652,-2.1673,-2.1404,-2.1402,-2.14,0,-2.1304,-2.1359,-2.1428,-2.1436,-2.1434,-2.1467,-2.1467,-2.1471,-2.1491,-2.1511,-2.1523,-2.1551,-2.1566,-2.1588,-2.1559,-2.1509,-2.164,-2.1565,-2.1633,-2.1634,-2.1665,-2.1664,-2.1877,-2.1675,-2.1674,-2.1674,-2.1674,0,-2.1469,-2.1535,-2.1493,-2.1536,-2.1607,-2.1567,-2.164,-2.1633,-2.1637,-2.1677,-2.1626,-2.1665,-2.1624,-2.1659,-2.1637,-2.1704,-2.1711,-2.1704,-2.1697,-2.1709,-2.1711,-2.1722,-2.1713,-2.1679,-2.1678,-2.1677,-2.1676,0,-2.1644,-2.1618,-2.1689,-2.168,-2.1679,-2.1733,-2.1725,-2.1765,-2.1749,-2.1801,-2.181,-2.1786,-2.1825,-2.1798,-2.1836,-2.1821,-2.191,-2.1889,-2.1908,-2.1903,-2.1972,-2.1967,-2.2202,-2.2231,-2.2009,-2.2011,-2.2013,0,-2.1751,-2.1801,-2.1797,-2.182,-2.1823,-2.1861,-2.188,-2.1842,-2.1865,-2.1876,-2.1914,-2.1948,-2.1974,-2.2038,-2.2024,-2.2054,-2.2034,-2.2114,-2.2039,-2.2049,-2.2037,-2.2035,-2.204,-2.2131,-2.2133,-2.2136,-2.2137,0,-2.1946,-2.193,-2.1959,-2.1985,-2.2009,-2.2027,-2.2041,-2.2063,-2.2024,-2.2052,-2.2091,-2.211,-2.2149,-2.2184,-2.2207,-2.2208,-2.2167,-2.2161,-2.2178,-2.2192,-2.2201,-2.2198,-2.1951,-2.2156,-2.2154,-2.2153,-2.2152,-2.2151,-2.2091,-2.2132,-2.2135,-2.217,-2.2176,-2.219,-2.2226,-2.2214,-2.2245,-2.2274,-2.2249,-2.2296,-2.2301,-2.2328,-2.2334,-2.2369,-2.2336,-2.2362,-2.2368,-2.2376,-2.2386,-2.2194,-2.2373,-2.2373,-2.2372,-2.2372,-2.2371,0,-2.2283,-2.2282,-2.2314,-2.2335,-2.2362,-2.2319,-2.2332,-2.2358,-2.2399,-2.2407,-2.2432,-2.2477,-2.2509,-2.2497,-2.2527,-2.2558,-2.2539,-2.2567,-2.2565,-2.2566,-2.2413,-2.2396,-2.2581,-2.2581,-2.2581,-2.2581,-2.2581,-2.2581,-2.2387,-2.2454,-2.2438,-2.2508,-2.2505,-2.255,-2.2561,-2.2574,-2.258,-2.2631,-2.2658,-2.2649,-2.2649,-2.2678,-2.2706,-2.2702,-2.2715,-2.275,-2.2739,-2.2597,-2.2576,-2.2557,-2.254,-2.2753,-2.2753,-2.2889,-2.289,-2.2891]},{"header":{"parameterUnit":"m.s-1","parameterCategory":1,"la1":30.2991,"la2":30.254,"lo1":-89.0895,"lo2":-89.0444,"dy":0.0017,"dx":0.0017,"nx":28,"ny":28,"refTime":"2024-06-08T09:00:00:Z","depth":0,"parameterNumber":3,"parameterNumberName":"V-component_of_WINDS"},"data":[0,0,0,0,0,0,0,0,0,0,0,0,0,0,0,0,0,0,0,0,0,0,0,0,0,0,0,0,0,0,0,0,0,0,0,0,0,0,0,0,0,0,0,0,0,0,0,0,0,0,0,0,0,0,0,0,0,0,-3.2661,-3.2661,0,-3.2678,-3.2679,-3.2679,-3.2648,-3.2647,-3.2646,-3.2645,-3.2661,-3.2663,-3.2664,0,0,0,0,0,0,0,0,0,0,0,0,0,-3.2598,-3.2599,-3.2661,-3.2661,-3.2661,-3.2678,-3.2679,-3.2679,-3.2648,-3.2647,-3.2645,-3.2644,-3.2661,-3.2663,-3.2664,0,0,0,0,0,0,0,0,0,0,0,0,0,-3.2621,-3.26,-3.2661,-3.2648,-3.2647,-3.2678,-3.2679,-3.2679,-3.2648,-3.2647,-3.2645,-3.2644,-3.266,-3.2662,-3.2664,-3.2709,0,0,-3.2671,-3.2672,0,0,0,0,0,0,0,0,-3.262,-3.2624,-3.265,-3.2649,-3.2648,-3.2659,-3.2663,-3.2689,-3.2649,-3.2648,-3.2645,-3.2643,-3.2662,-3.2664,-3.267,-3.271,-3.271,-3.2671,-3.2672,-3.2673,-3.2674,0,0,0,0,0,0,0,-3.2618,-3.2623,-3.2668,-3.265,-3.2649,-3.264,-3.2642,-3.2667,-3.2663,-3.2648,-3.2645,-3.2648,-3.2661,-3.2668,-3.2671,-3.2711,-3.2671,-3.2673,-3.2674,-3.2675,-3.2785,-3.2787,0,0,0,0,0,0,-3.2619,-3.2622,-3.2667,-3.2668,-3.263,-3.2643,-3.2645,-3.2657,-3.2663,-3.2662,-3.2649,-3.2646,-3.2666,-3.2668,-3.2671,-3.2722,-3.2673,-3.2675,-3.2677,-3.2784,-3.2786,-3.2787,0,0,0,0,0,0,-3.2617,-3.2623,-3.2666,-3.2644,-3.2649,-3.2646,-3.266,-3.2658,-3.2666,-3.2664,-3.2663,-3.2658,-3.2664,-3.2668,-3.2699,-3.2722,-3.2676,-3.2678,-3.2782,-3.2784,-3.2787,-3.2825,0,0,0,0,0,0,-3.2616,-3.2623,-3.264,-3.2645,-3.2651,-3.2695,-3.2661,-3.266,-3.267,-3.2666,-3.2672,-3.2671,-3.2664,-3.2696,-3.2702,-3.2724,-3.268,-3.278,-3.2783,-3.2786,-3.2822,-3.2829,-3.2835,0,0,0,0,0,-3.2614,-3.2651,-3.2641,-3.2647,-3.2672,-3.2697,-3.27,-3.269,-3.2672,-3.2689,-3.2687,-3.2671,-3.2719,-3.27,-3.2705,-3.2729,-3.2778,-3.2782,-3.2786,-3.2819,-3.2827,-3.2834,0,0,0,0,0,0,-3.2648,-3.2651,-3.2641,-3.268,-3.2689,-3.2691,-3.2713,-3.27,-3.2713,-3.2709,-3.2697,-3.2698,-3.2732,-3.2734,-3.2712,-3.2772,-3.2745,-3.275,-3.2769,-3.2777,-3.2783,-3.2781,-3.2682,0,0,0,0,0,-3.2661,-3.2681,-3.2682,-3.2717,-3.2721,-3.2716,-3.2727,-3.2719,-3.2726,-3.273,-3.2731,-3.2738,-3.2755,-3.2766,-3.2782,-3.2822,-3.2822,-3.2841,-3.2848,-3.2853,-3.2857,-3.2877,-3.2885,-3.28,-3.28,-3.28,0,0,-3.2686,-3.269,-3.2704,-3.2724,-3.2729,-3.2749,-3.2719,-3.2742,-3.2757,-3.2733,-3.2762,-3.2763,-3.2771,-3.2807,-3.2823,-3.281,-3.2881,-3.2858,-3.2862,-3.2863,-3.2882,-3.289,-3.2897,-3.2802,-3.2802,-3.2801,0,0,-3.2743,-3.2749,-3.2777,-3.2783,-3.2792,-3.2788,-3.2795,-3.28,-3.2799,-3.2829,-3.2811,-3.2828,-3.2857,-3.2863,-3.2869,-3.2927,-3.2912,-3.2933,-3.2965,-3.2985,-3.2992,-3.2997,-3.3016,-3.3024,-3.2937,-3.2937,-3.2937,0,-3.2773,-3.2803,-3.2794,-3.2817,-3.2826,-3.2806,-3.2834,-3.284,-3.2853,-3.2859,-3.2844,-3.288,-3.2884,-3.292,-3.2934,-3.2941,-3.2947,-3.2931,-3.2992,-3.2997,-3.3003,-3.3021,-3.3028,-3.2939,-3.2939,-3.2939,-3.2939,0,-3.2839,-3.2861,-3.2883,-3.2896,-3.2907,-3.2933,-3.2926,-3.2939,-3.293,-3.2927,-3.2957,-3.2961,-3.2976,-3.2984,-3.2976,-3.3018,-3.301,-3.2994,-3.2967,-3.3013,-3.303,-3.3037,-3.2943,-3.2942,-3.2941,-3.2941,0,0,-3.2918,-3.2925,-3.2933,-3.2938,-3.2945,-3.2961,-3.2986,-3.3001,-3.3011,-3.3021,-3.304,-3.3065,-3.305,-3.3057,-3.3049,-3.3067,-3.311,-3.3048,-3.3048,-3.3058,-3.3156,-3.3167,-3.3175,-3.3101,-3.3102,-3.3103,-3.3155,0,-3.2973,-3.3015,-3.3007,-3.3048,-3.3066,-3.3047,-3.3068,-3.3075,-3.3073,-3.3088,-3.3086,-3.3103,-3.3083,-3.3087,-3.3103,-3.3101,-3.3129,-3.3098,-3.3117,-3.3118,-3.3114,-3.3184,-3.3196,-3.3244,-3.3161,-3.3162,-3.3163,0,-3.3042,-3.3054,-3.3097,-3.31,-3.3108,-3.3127,-3.3139,-3.3154,-3.3161,-3.3158,-3.3167,-3.3155,-3.3178,-3.3152,-3.3183,-3.3162,-3.317,-3.317,-3.3171,-3.3172,-3.3142,-3.3184,-3.326,-3.3266,-3.3174,-3.3173,-3.3172,0,-3.3093,-3.312,-3.3149,-3.3154,-3.3159,-3.3173,-3.3175,-3.318,-3.3189,-3.32,-3.3205,-3.3219,-3.3226,-3.3236,-3.3228,-3.321,-3.326,-3.3233,-3.3257,-3.3257,-3.3267,-3.3266,-3.3343,-3.3275,-3.3275,-3.3275,-3.3275,0,-3.3154,-3.3181,-3.3171,-3.3189,-3.3218,-3.3207,-3.3236,-3.3236,-3.3241,-3.3257,-3.3242,-3.3258,-3.3247,-3.3261,-3.3255,-3.3281,-3.3285,-3.3282,-3.328,-3.3283,-3.3283,-3.3287,-3.3282,-3.3277,-3.3276,-3.3276,-3.3276,0,-3.3215,-3.321,-3.324,-3.3242,-3.3243,-3.3264,-3.3266,-3.3281,-3.3279,-3.33,-3.3304,-3.3299,-3.3316,-3.3309,-3.3326,-3.3322,-3.3355,-3.3349,-3.3352,-3.335,-3.3374,-3.3371,-3.3454,-3.3463,-3.3391,-3.3392,-3.3392,0,-3.3254,-3.3274,-3.3278,-3.3288,-3.3292,-3.3308,-3.3317,-3.3308,-3.3317,-3.3326,-3.334,-3.3355,-3.3367,-3.3393,-3.3391,-3.3404,-3.3397,-3.3426,-3.3399,-3.3401,-3.3396,-3.3394,-3.3395,-3.343,-3.3431,-3.3432,-3.3432,0,-3.3322,-3.3318,-3.3332,-3.3345,-3.3356,-3.3365,-3.3374,-3.3383,-3.3373,-3.3385,-3.3401,-3.341,-3.3428,-3.3442,-3.3453,-3.3455,-3.3442,-3.3441,-3.3447,-3.3449,-3.3449,-3.3448,-3.3365,-3.3439,-3.3438,-3.3438,-3.3437,-3.3437,-3.3372,-3.3388,-3.3393,-3.3409,-3.3414,-3.3421,-3.3436,-3.3434,-3.3448,-3.3461,-3.3455,-3.3474,-3.3479,-3.3492,-3.3496,-3.351,-3.3499,-3.3508,-3.351,-3.3512,-3.3514,-3.3449,-3.3512,-3.3512,-3.3512,-3.3512,-3.3512,0,-3.3438,-3.344,-3.3454,-3.3466,-3.3478,-3.3465,-3.3473,-3.3483,-3.35,-3.3506,-3.3517,-3.3535,-3.3549,-3.3548,-3.3561,-3.3572,-3.3566,-3.3575,-3.3573,-3.3574,-3.3524,-3.3517,-3.358,-3.358,-3.358,-3.358,-3.358,-3.358,-3.3473,-3.3499,-3.3496,-3.3524,-3.3526,-3.3544,-3.355,-3.3556,-3.3561,-3.3582,-3.3593,-3.3592,-3.3595,-3.3607,-3.3619,-3.3618,-3.3623,-3.3634,-3.3631,-3.3584,-3.3578,-3.3571,-3.3564,-3.3636,-3.3636,-3.3679,-3.368,-3.368]}]]